[[{"header":{"parameterUnit":"m.s-1","parameterCategory":1,"la1":30.2991,"la2":30.254,"lo1":-89.0895,"lo2":-89.0444,"dy":0.0017,"dx":0.0017,"nx":28,"ny":28,"refTime":"2024-12-12T09:00:00:Z","depth":0,"parameterNumber":2,"parameterNumberName":"U-component_of_WINDS"},"data":[0,0,0,0,0,0,0,0,0,0,0,0,0,0,0,0,0,0,0,0,0,0,0,0,0,0,0,0,0,0,0,0,0,0,0,0,0,0,0,0,0,0,0,0,0,0,0,0,0,0,0,0,0,0,0,0,0,0,-3.8093,-3.8093,0,-3.815,-3.815,-3.8151,-3.8041,-3.8037,-3.8034,-3.803,-3.8093,-3.8098,-3.8103,0,0,0,0,0,0,0,0,0,0,0,0,0,-3.7891,-3.7895,-3.8092,-3.8093,-3.8094,-3.815,-3.815,-3.8151,-3.8042,-3.8037,-3.8033,-3.8029,-3.8091,-3.8097,-3.8103,0,0,0,0,0,0,0,0,0,0,0,0,0,-3.7967,-3.7897,-3.8092,-3.8046,-3.8042,-3.8149,-3.815,-3.8151,-3.8043,-3.8037,-3.8032,-3.8026,-3.8089,-3.8096,-3.8104,-3.826,0,0,-3.8127,-3.813,0,0,0,0,0,0,0,0,-3.7962,-3.7974,-3.8052,-3.8049,-3.8045,-3.8082,-3.8102,-3.8188,-3.8044,-3.8043,-3.803,-3.8024,-3.8094,-3.8101,-3.8124,-3.8263,-3.8266,-3.8128,-3.8132,-3.8136,-3.8138,0,0,0,0,0,0,0,-3.7957,-3.7971,-3.8115,-3.8053,-3.8049,-3.8023,-3.8028,-3.8118,-3.8098,-3.8042,-3.8034,-3.8042,-3.8091,-3.8117,-3.8124,-3.8267,-3.8128,-3.8134,-3.8139,-3.8142,-3.8538,-3.8543,0,0,0,0,0,0,-3.7957,-3.7967,-3.8113,-3.8117,-3.7989,-3.8031,-3.8036,-3.8076,-3.8097,-3.8095,-3.8047,-3.8037,-3.8106,-3.8116,-3.8126,-3.8311,-3.8136,-3.8143,-3.8147,-3.8532,-3.8539,-3.8545,0,0,0,0,0,0,-3.7954,-3.7972,-3.8111,-3.804,-3.8056,-3.804,-3.8086,-3.808,-3.8105,-3.8101,-3.8097,-3.8077,-3.8102,-3.8115,-3.8228,-3.8312,-3.8146,-3.8153,-3.8525,-3.8534,-3.8542,-3.8683,0,0,0,0,0,0,-3.7948,-3.7971,-3.803,-3.8042,-3.806,-3.8211,-3.8091,-3.8085,-3.8118,-3.8106,-3.8127,-3.8126,-3.8099,-3.8217,-3.8235,-3.8319,-3.8159,-3.8517,-3.8529,-3.8539,-3.8671,-3.8696,-3.8717,0,0,0,0,0,-3.7941,-3.8068,-3.8033,-3.8051,-3.8133,-3.8216,-3.8227,-3.8192,-3.8126,-3.8185,-3.8182,-3.8125,-3.8299,-3.8229,-3.8249,-3.8337,-3.8512,-3.8526,-3.8539,-3.866,-3.8691,-3.8716,0,0,0,0,0,0,-3.8067,-3.8069,-3.803,-3.8164,-3.8191,-3.8198,-3.8272,-3.8226,-3.8273,-3.8259,-3.8216,-3.8221,-3.8343,-3.835,-3.8272,-3.8489,-3.8394,-3.8412,-3.848,-3.8509,-3.8532,-3.8528,-3.8165,0,0,0,0,0,-3.811,-3.8177,-3.8174,-3.8293,-3.8308,-3.8288,-3.8323,-3.8294,-3.832,-3.8331,-3.8336,-3.8365,-3.8426,-3.8467,-3.8523,-3.867,-3.8674,-3.874,-3.8763,-3.8782,-3.8799,-3.8878,-3.8908,-3.8589,-3.8589,-3.8589,0,0,-3.8201,-3.8209,-3.8254,-3.8318,-3.8336,-3.8407,-3.8298,-3.8378,-3.8431,-3.8344,-3.845,-3.8455,-3.8484,-3.8614,-3.8672,-3.8624,-3.8887,-3.8799,-3.8814,-3.8821,-3.8895,-3.8925,-3.8952,-3.8599,-3.8597,-3.8595,0,0,-3.8402,-3.8414,-3.8515,-3.8534,-3.856,-3.8546,-3.857,-3.8584,-3.8583,-3.8688,-3.8625,-3.8687,-3.8793,-3.8816,-3.8842,-3.9051,-3.9001,-3.907,-3.9191,-3.9269,-3.9294,-3.9316,-3.9392,-3.942,-3.9086,-3.9087,-3.9087,0,-3.8511,-3.8614,-3.8572,-3.8657,-3.8687,-3.861,-3.8712,-3.8732,-3.8777,-3.88,-3.8746,-3.8877,-3.8891,-3.9026,-3.9077,-3.91,-3.9127,-3.9069,-3.9293,-3.9315,-3.9335,-3.9407,-3.9436,-3.9095,-3.9094,-3.9093,-3.9092,0,-3.8748,-3.8821,-3.8899,-3.8942,-3.8981,-3.9074,-3.9047,-3.9091,-3.9058,-3.905,-3.9159,-3.9172,-3.923,-3.9259,-3.9228,-3.939,-3.936,-3.93,-3.9205,-3.9375,-3.9442,-3.9469,-3.9107,-3.9104,-3.9101,-3.9099,0,0,-3.9033,-3.905,-3.908,-3.9099,-3.9122,-3.9178,-3.9267,-3.9322,-3.9362,-3.9394,-3.9469,-3.9559,-3.9504,-3.9533,-3.9504,-3.9572,-3.9738,-3.9504,-3.9504,-3.9548,-3.9918,-3.9965,-3.9997,-3.9703,-3.9708,-3.9712,-3.9916,0,-3.9234,-3.9386,-3.9351,-3.9502,-3.9569,-3.9496,-3.9573,-3.9596,-3.959,-3.9647,-3.964,-3.9706,-3.9627,-3.9644,-3.9708,-3.9704,-3.9812,-3.9689,-3.9774,-3.9778,-3.9772,-4.0032,-4.0082,-4.0274,-3.9942,-3.9947,-3.995,0,-3.9489,-3.953,-3.9688,-3.97,-3.9727,-3.9797,-3.9845,-3.9899,-3.9924,-3.9914,-3.9947,-3.9904,-3.9993,-3.9894,-4.0017,-3.9934,-3.9966,-3.997,-3.9976,-3.9985,-3.9876,-4.005,-4.0334,-4.0364,-3.999,-3.9987,-3.9984,0,-3.9683,-3.9778,-3.9885,-3.9903,-3.9919,-3.997,-3.998,-3.9998,-4.0034,-4.0075,-4.0097,-4.0149,-4.0178,-4.0219,-4.0192,-4.0122,-4.032,-4.0218,-4.0316,-4.0317,-4.0363,-4.0361,-4.0659,-4.0381,-4.038,-4.038,-4.0379,0,-3.9913,-4.0013,-3.9972,-4.0038,-4.0148,-4.0106,-4.0216,-4.0216,-4.0234,-4.0299,-4.0238,-4.0301,-4.026,-4.032,-4.0299,-4.0404,-4.0417,-4.0413,-4.0407,-4.042,-4.0421,-4.0443,-4.043,-4.0387,-4.0386,-4.0384,-4.0383,0,-4.015,-4.0126,-4.0238,-4.0243,-4.0247,-4.0328,-4.0333,-4.0394,-4.0382,-4.0466,-4.0483,-4.0466,-4.0533,-4.0509,-4.0581,-4.0566,-4.0702,-4.0677,-4.0693,-4.0688,-4.0788,-4.078,-4.1112,-4.1154,-4.0847,-4.0849,-4.0852,0,-4.0299,-4.0374,-4.0387,-4.0426,-4.0439,-4.0502,-4.0537,-4.0498,-4.0537,-4.057,-4.0628,-4.0689,-4.0737,-4.0848,-4.0842,-4.0897,-4.0874,-4.0986,-4.0882,-4.0893,-4.0878,-4.0875,-4.0883,-4.1009,-4.1012,-4.1015,-4.1017,0,-4.0567,-4.0551,-4.0604,-4.0652,-4.0695,-4.0732,-4.0763,-4.0799,-4.0761,-4.0808,-4.0875,-4.0912,-4.0984,-4.1047,-4.1095,-4.1105,-4.1057,-4.105,-4.1075,-4.1091,-4.1098,-4.1098,-4.0753,-4.1043,-4.104,-4.1039,-4.1037,-4.1036,-4.0766,-4.0829,-4.0848,-4.0909,-4.0927,-4.0958,-4.1016,-4.1011,-4.1066,-4.1121,-4.1094,-4.1172,-4.1194,-4.1254,-4.1271,-4.1332,-4.1289,-4.1326,-4.1336,-4.1346,-4.136,-4.1086,-4.1341,-4.134,-4.1339,-4.1339,-4.1338,0,-4.1033,-4.104,-4.1096,-4.1141,-4.1189,-4.1135,-4.1167,-4.1211,-4.128,-4.1304,-4.1351,-4.1428,-4.1488,-4.1486,-4.1542,-4.1591,-4.157,-4.1607,-4.1604,-4.1608,-4.1395,-4.1368,-4.1623,-4.1623,-4.1623,-4.1623,-4.1623,-4.1623,-4.1177,-4.1282,-4.1268,-4.1381,-4.1388,-4.1464,-4.1487,-4.1514,-4.1533,-4.1622,-4.1671,-4.1668,-4.1682,-4.1738,-4.1791,-4.1788,-4.1813,-4.1859,-4.1849,-4.1651,-4.1623,-4.1596,-4.157,-4.1864,-4.1864,-4.2057,-4.2058,-4.206]},{"header":{"parameterUnit":"m.s-1","parameterCategory":1,"la1":30.2991,"la2":30.254,"lo1":-89.0895,"lo2":-89.0444,"dy":0.0017,"dx":0.0017,"nx":28,"ny":28,"refTime":"2024-12-12T09:00:00:Z","depth":0,"parameterNumber":3,"parameterNumberName":"V-component_of_WINDS"},"data":[0,0,0,0,0,0,0,0,0,0,0,0,0,0,0,0,0,0,0,0,0,0,0,0,0,0,0,0,0,0,0,0,0,0,0,0,0,0,0,0,0,0,0,0,0,0,0,0,0,0,0,0,0,0,0,0,0,0,-2.6461,-2.6462,0,-2.6515,-2.6516,-2.6516,-2.6471,-2.6469,-2.6467,-2.6466,-2.6519,-2.6522,-2.6526,0,0,0,0,0,0,0,0,0,0,0,0,0,-2.6317,-2.632,-2.6461,-2.6462,-2.6462,-2.6515,-2.6516,-2.6516,-2.6472,-2.6469,-2.6467,-2.6465,-2.6518,-2.6522,-2.6526,0,0,0,0,0,0,0,0,0,0,0,0,0,-2.6376,-2.6321,-2.6461,-2.6446,-2.6446,-2.6515,-2.6516,-2.6517,-2.6472,-2.6469,-2.6466,-2.6464,-2.6517,-2.6522,-2.6526,-2.6612,0,0,-2.6541,-2.6543,0,0,0,0,0,0,0,0,-2.6373,-2.6381,-2.6448,-2.6448,-2.6447,-2.6484,-2.6484,-2.6549,-2.6473,-2.6462,-2.6466,-2.6462,-2.651,-2.6515,-2.6531,-2.6615,-2.6617,-2.6541,-2.6544,-2.6546,-2.6548,0,0,0,0,0,0,0,-2.6369,-2.6379,-2.6482,-2.6449,-2.6448,-2.6436,-2.6442,-2.6496,-2.6501,-2.6463,-2.646,-2.6467,-2.6509,-2.6527,-2.6532,-2.6618,-2.6541,-2.6545,-2.6548,-2.655,-2.6774,-2.6777,0,0,0,0,0,0,-2.6366,-2.6376,-2.6481,-2.6484,-2.6402,-2.6441,-2.6447,-2.6475,-2.65,-2.6501,-2.6469,-2.6464,-2.652,-2.6526,-2.6534,-2.6636,-2.6546,-2.6551,-2.6553,-2.6771,-2.6775,-2.6778,0,0,0,0,0,0,-2.6363,-2.6376,-2.6478,-2.6429,-2.6441,-2.6447,-2.6478,-2.6477,-2.6495,-2.6505,-2.6505,-2.6487,-2.6518,-2.6527,-2.6593,-2.6637,-2.6553,-2.6557,-2.6767,-2.6772,-2.6776,-2.6841,0,0,0,0,0,0,-2.6359,-2.6375,-2.6409,-2.643,-2.6444,-2.6538,-2.6481,-2.648,-2.6504,-2.6498,-2.6522,-2.6523,-2.6516,-2.6586,-2.6598,-2.6642,-2.6561,-2.6763,-2.6769,-2.6775,-2.6835,-2.6848,-2.6858,0,0,0,0,0,-2.6354,-2.6424,-2.6411,-2.6423,-2.6486,-2.6541,-2.6548,-2.654,-2.6507,-2.654,-2.6547,-2.6522,-2.663,-2.6593,-2.6606,-2.6653,-2.6761,-2.6768,-2.6774,-2.683,-2.6845,-2.6858,0,0,0,0,0,0,-2.6408,-2.6427,-2.6412,-2.6491,-2.6515,-2.6533,-2.6575,-2.6556,-2.6589,-2.6583,-2.657,-2.6576,-2.6645,-2.6655,-2.6614,-2.6737,-2.669,-2.67,-2.6728,-2.6742,-2.6754,-2.675,-2.6565,0,0,0,0,0,-2.6429,-2.6472,-2.6486,-2.6555,-2.6567,-2.6569,-2.6593,-2.6584,-2.6608,-2.6617,-2.6628,-2.6652,-2.6691,-2.6717,-2.6753,-2.6836,-2.684,-2.6874,-2.6885,-2.6895,-2.6904,-2.6948,-2.6963,-2.6801,-2.6801,-2.6801,0,0,-2.6473,-2.6488,-2.6517,-2.6566,-2.6583,-2.6628,-2.6578,-2.6627,-2.666,-2.6624,-2.6688,-2.6697,-2.6722,-2.6797,-2.683,-2.6807,-2.6949,-2.6904,-2.6911,-2.6915,-2.6957,-2.6972,-2.6986,-2.6806,-2.6805,-2.6804,0,0,-2.6576,-2.6592,-2.6651,-2.6669,-2.6696,-2.6696,-2.671,-2.6731,-2.6736,-2.68,-2.6774,-2.6812,-2.688,-2.6899,-2.6917,-2.7026,-2.7005,-2.7038,-2.7098,-2.7142,-2.7154,-2.7166,-2.7205,-2.7219,-2.7047,-2.7047,-2.7047,0,-2.6627,-2.6694,-2.6683,-2.6735,-2.6757,-2.6727,-2.6786,-2.6804,-2.6841,-2.6857,-2.6831,-2.6915,-2.693,-2.7008,-2.7035,-2.7051,-2.7066,-2.7036,-2.7153,-2.7165,-2.7175,-2.7212,-2.7227,-2.7051,-2.7051,-2.705,-2.705,0,-2.6755,-2.6802,-2.6846,-2.6884,-2.6911,-2.6966,-2.6963,-2.6991,-2.698,-2.6983,-2.7048,-2.7064,-2.7103,-2.7121,-2.711,-2.7198,-2.7183,-2.7155,-2.7108,-2.7195,-2.723,-2.7244,-2.7057,-2.7055,-2.7054,-2.7053,0,0,-2.6895,-2.6925,-2.6941,-2.6958,-2.6985,-2.702,-2.7073,-2.7112,-2.7137,-2.7163,-2.7207,-2.7265,-2.7239,-2.726,-2.7251,-2.7289,-2.7375,-2.7256,-2.7257,-2.7278,-2.7472,-2.7494,-2.751,-2.736,-2.7363,-2.7365,-2.747,0,-2.6999,-2.7093,-2.7085,-2.7173,-2.7216,-2.7187,-2.7233,-2.7254,-2.7258,-2.7295,-2.7298,-2.734,-2.7302,-2.7315,-2.7351,-2.7357,-2.7413,-2.7349,-2.7401,-2.7403,-2.7396,-2.7528,-2.7551,-2.765,-2.7484,-2.7486,-2.7488,0,-2.7134,-2.7166,-2.7259,-2.7279,-2.7296,-2.7338,-2.7373,-2.7408,-2.7431,-2.7431,-2.7454,-2.7438,-2.7491,-2.7442,-2.7514,-2.747,-2.7491,-2.7497,-2.75,-2.7505,-2.7451,-2.7538,-2.7682,-2.7697,-2.7509,-2.7507,-2.7506,0,-2.7227,-2.7292,-2.7357,-2.7371,-2.7396,-2.7426,-2.7438,-2.7458,-2.7482,-2.7511,-2.7527,-2.7562,-2.7582,-2.7609,-2.7603,-2.7568,-2.7677,-2.7627,-2.7678,-2.7678,-2.7703,-2.7702,-2.7853,-2.7715,-2.7715,-2.7715,-2.7714,0,-2.7345,-2.7403,-2.7399,-2.7438,-2.7502,-2.7491,-2.7555,-2.7562,-2.758,-2.762,-2.7597,-2.7635,-2.7624,-2.7661,-2.7656,-2.7717,-2.7726,-2.7727,-2.7725,-2.773,-2.773,-2.7744,-2.7737,-2.7719,-2.7718,-2.7717,-2.7716,0,-2.746,-2.746,-2.7528,-2.7545,-2.7551,-2.7598,-2.7612,-2.7649,-2.7651,-2.7701,-2.7713,-2.7715,-2.7757,-2.7754,-2.7801,-2.7798,-2.7873,-2.7863,-2.7866,-2.7864,-2.7915,-2.7911,-2.8081,-2.8103,-2.795,-2.7952,-2.7953,0,-2.7536,-2.7581,-2.7603,-2.7628,-2.7642,-2.7683,-2.7708,-2.7698,-2.7724,-2.7753,-2.7786,-2.7826,-2.7858,-2.7927,-2.7933,-2.7969,-2.7959,-2.8017,-2.7965,-2.7968,-2.7961,-2.7959,-2.7963,-2.8027,-2.8029,-2.803,-2.8032,0,-2.7671,-2.7669,-2.7705,-2.7741,-2.7771,-2.7799,-2.7824,-2.7846,-2.7838,-2.7869,-2.7912,-2.7937,-2.7985,-2.8025,-2.8059,-2.807,-2.805,-2.8048,-2.8061,-2.8067,-2.8067,-2.8068,-2.7895,-2.8044,-2.8043,-2.8042,-2.8041,-2.8041,-2.777,-2.7808,-2.783,-2.787,-2.7888,-2.7912,-2.7948,-2.7954,-2.799,-2.8029,-2.8021,-2.807,-2.809,-2.8134,-2.8148,-2.8186,-2.8165,-2.8185,-2.819,-2.8195,-2.8202,-2.8061,-2.8192,-2.8191,-2.8191,-2.8191,-2.8191,0,-2.7904,-2.7917,-2.7954,-2.7991,-2.8023,-2.8001,-2.8027,-2.8055,-2.8099,-2.812,-2.8152,-2.8201,-2.824,-2.8248,-2.8285,-2.8314,-2.8305,-2.8324,-2.8322,-2.8325,-2.8218,-2.8203,-2.833,-2.833,-2.833,-2.833,-2.833,-2.833,-2.7978,-2.8041,-2.8041,-2.8112,-2.8124,-2.8172,-2.8189,-2.8211,-2.8228,-2.8284,-2.8317,-2.8322,-2.8338,-2.8375,-2.841,-2.8411,-2.8426,-2.8448,-2.8446,-2.8346,-2.8332,-2.8319,-2.8305,-2.8451,-2.8452,-2.855,-2.8551,-2.8551]}]]